�������l�o���
Date,Time,MP-1(��Sv/h),MP-2(��Sv/h),MP-3(��Sv/h),MP-4(��Sv/h),MP-5(��Sv/h),MP-6(��Sv/h),MP-7(��Sv/h),MP-8(��Sv/h),����,����(m/s),���J
2018/03/23,00:00,0.826,1.378,0.863,1.611,1.070,0.474,0.834,0.804,�k,5.4,��
2018/03/23,00:10,0.824,1.376,0.860,1.614,1.070,0.474,0.834,0.805,�k�k��,5.5,��
2018/03/23,00:20,0.826,1.378,0.861,1.614,1.070,0.472,0.833,0.805,�k,5.6,��
2018/03/23,00:30,0.827,1.377,0.862,1.615,1.072,0.473,0.834,0.804,�k,6.1,��
2018/03/23,00:40,0.826,1.381,0.863,1.613,1.070,0.473,0.835,0.804,�k,6.3,��
2018/03/23,00:50,0.825,1.381,0.861,1.613,1.070,0.474,0.834,0.804,�k,5.5,��
2018/03/23,01:00,0.827,1.380,0.863,1.618,1.070,0.474,0.835,0.804,�k,6.8,��
2018/03/23,01:10,0.825,1.377,0.861,1.615,1.072,0.472,0.834,0.805,�k�k��,5.6,�L
2018/03/23,01:20,0.823,1.380,0.861,1.614,1.071,0.472,0.835,0.804,�k�k��,5.8,�L
2018/03/23,01:30,0.825,1.380,0.861,1.612,1.073,0.472,0.834,0.804,�k�k��,5.4,�L
2018/03/23,01:40,0.826,1.379,0.863,1.613,1.071,0.475,0.837,0.803,�k�k��,5.4,�L
2018/03/23,01:50,0.824,1.378,0.863,1.615,1.073,0.474,0.836,0.803,�k�k��,5.3,�L
2018/03/23,02:00,0.827,1.378,0.862,1.615,1.071,0.474,0.836,0.805,�k�k��,5.5,�L
2018/03/23,02:10,0.826,1.379,0.862,1.614,1.069,0.474,0.835,0.804,�k�k��,5.6,�L
2018/03/23,02:20,0.826,1.379,0.863,1.613,1.070,0.473,0.836,0.804,�k�k��,5.7,�L
2018/03/23,02:30,0.827,1.379,0.865,1.614,1.072,0.472,0.836,0.805,�k�k��,5.5,�L
2018/03/23,02:40,0.828,1.380,0.861,1.612,1.071,0.473,0.835,0.804,�k�k��,6.0,�L
2018/03/23,02:50,0.825,1.376,0.861,1.614,1.071,0.473,0.836,0.806,�k�k��,6.4,�L
2018/03/23,03:00,0.825,1.376,0.862,1.615,1.070,0.473,0.836,0.804,�k�k��,6.4,�L
2018/03/23,03:10,0.827,1.379,0.862,1.615,1.072,0.471,0.835,0.804,�k�k��,6.6,�L
2018/03/23,03:20,0.824,1.378,0.861,1.612,1.070,0.474,0.836,0.804,�k�k��,5.8,�L
2018/03/23,03:30,0.825,1.380,0.862,1.614,1.073,0.473,0.836,0.806,�k�k��,5.9,��
2018/03/23,03:40,0.825,1.378,0.858,1.615,1.070,0.472,0.836,0.805,�k�k��,5.8,��
2018/03/23,03:50,0.825,1.375,0.861,1.613,1.072,0.473,0.836,0.803,�k�k��,6.5,��
2018/03/23,04:00,0.825,1.378,0.860,1.613,1.071,0.474,0.836,0.807,�k�k��,5.6,��
2018/03/23,04:10,0.825,1.380,0.861,1.613,1.074,0.474,0.836,0.805,�k�k��,6.8,��
2018/03/23,04:20,0.825,1.378,0.861,1.613,1.072,0.474,0.836,0.807,�k�k��,7.2,��
2018/03/23,04:30,0.823,1.379,0.863,1.614,1.068,0.472,0.836,0.804,�k�k��,6.5,��
2018/03/23,04:40,0.824,1.377,0.861,1.614,1.070,0.473,0.836,0.804,�k�k��,6.3,��
2018/03/23,04:50,0.824,1.379,0.862,1.615,1.071,0.474,0.838,0.804,�k�k��,5.8,��
2018/03/23,05:00,0.824,1.379,0.860,1.613,1.071,0.473,0.835,0.804,�k�k��,6.6,��
2018/03/23,05:10,0.825,1.380,0.862,1.614,1.069,0.472,0.835,0.804,�k�k��,6.2,��
2018/03/23,05:20,0.825,1.379,0.862,1.615,1.070,0.473,0.837,0.804,�k�k��,5.2,��
2018/03/23,05:30,0.825,1.379,0.863,1.617,1.072,0.473,0.836,0.804,�k�k��,4.6,��
2018/03/23,05:40,0.824,1.378,0.861,1.615,1.074,0.471,0.838,0.805,�k�k��,4.5,��
2018/03/23,05:50,0.825,1.377,0.861,1.616,1.072,0.471,0.836,0.804,�k�k��,5.1,��
2018/03/23,06:00,0.824,1.379,0.862,1.615,1.073,0.473,0.837,0.807,�k�k��,5.3,��
2018/03/23,06:10,0.824,1.378,0.862,1.613,1.073,0.473,0.835,0.803,�k�k��,5.5,��
2018/03/23,06:20,0.825,1.381,0.862,1.615,1.072,0.473,0.836,0.805,�k�k��,5.1,�L
2018/03/23,06:30,0.824,1.377,0.863,1.616,1.074,0.472,0.837,0.804,�k��,6.2,��
2018/03/23,06:40,0.824,1.378,0.862,1.614,1.072,0.473,0.836,0.803,�k��,5.2,��
2018/03/23,06:50,0.825,1.379,0.861,1.619,1.072,0.473,0.836,0.807,�k��,5.2,��
2018/03/23,07:00,0.826,1.377,0.863,1.617,1.072,0.474,0.835,0.806,�k��,4.7,��
2018/03/23,07:10,0.825,1.379,0.861,1.613,1.073,0.474,0.836,0.804,�k��,4.5,��
2018/03/23,07:20,0.826,1.377,0.860,1.616,1.073,0.473,0.838,0.803,�k��,4.1,��
2018/03/23,07:30,0.827,1.379,0.863,1.615,1.075,0.473,0.835,0.804,�k�k��,3.0,��
2018/03/23,07:40,0.824,1.379,0.861,1.618,1.076,0.473,0.836,0.806,�k�k��,3.1,�L
2018/03/23,07:50,0.825,1.378,0.862,1.617,1.075,0.473,0.836,0.806,�k�k��,2.5,��
2018/03/23,08:00,0.826,1.378,0.861,1.618,1.076,0.472,0.833,0.806,�k,2.9,��
2018/03/23,08:10,0.826,1.382,0.861,1.615,1.074,0.472,0.835,0.806,�k,3.0,��
2018/03/23,08:20,0.826,1.382,0.862,1.619,1.074,0.473,0.833,0.805,�k,2.6,��
2018/03/23,08:30,0.826,1.381,0.861,1.617,1.076,0.473,0.834,0.807,�k,2.8,��
2018/03/23,08:40,0.825,1.378,0.862,1.617,1.075,0.472,0.835,0.805,�k�k��,2.0,��
2018/03/23,08:50,0.826,1.382,0.861,1.616,1.076,0.471,0.835,0.805,�k�k��,3.1,��
2018/03/23,09:00,0.825,1.379,0.863,1.616,1.076,0.472,0.832,0.806,�k�k��,2.3,��
2018/03/23,09:10,0.825,1.379,0.861,1.618,1.077,0.472,0.835,0.806,�k�k��,2.6,��
2018/03/23,09:20,0.826,1.380,0.864,1.615,1.079,0.474,0.835,0.805,�k�k��,2.9,��
2018/03/23,09:30,0.825,1.381,0.862,1.620,1.078,0.473,0.836,0.806,�k,2.3,��
2018/03/23,09:40,0.825,1.380,0.861,1.619,1.079,0.474,0.834,0.806,�k�k��,2.5,��
2018/03/23,09:50,0.826,1.379,0.861,1.615,1.078,0.473,0.836,0.806,�k�k��,1.9,��
2018/03/23,10:00,0.827,1.379,0.864,1.617,1.078,0.472,0.834,0.805,�k�k��,1.2,�L
2018/03/23,10:10,0.826,1.380,0.863,1.619,1.079,0.472,0.835,0.807,�k,1.7,�L
2018/03/23,10:20,0.827,1.385,0.863,1.618,1.077,0.473,0.835,0.805,�k�k��,1.9,�L
2018/03/23,10:30,0.826,1.382,0.862,1.618,1.080,0.472,0.835,0.804,�k�k��,2.8,�L
2018/03/23,10:40,0.829,1.383,0.864,1.620,1.080,0.474,0.833,0.805,�k�k��,2.6,�L
2018/03/23,10:50,0.825,1.382,0.862,1.618,1.081,0.472,0.833,0.805,�k�k��,3.6,�L
2018/03/23,11:00,0.827,1.383,0.863,1.620,1.081,0.472,0.835,0.807,�k�k��,3.9,��
2018/03/23,11:10,0.826,1.383,0.863,1.621,1.079,0.473,0.835,0.806,�k�k��,4.5,��
2018/03/23,11:20,0.827,1.387,0.862,1.621,1.079,0.472,0.836,0.805,�k�k��,4.8,��
2018/03/23,11:30,0.826,1.385,0.863,1.622,1.079,0.472,0.832,0.806,�k�k��,4.2,��
2018/03/23,11:40,0.828,1.384,0.865,1.620,1.080,0.472,0.834,0.806,�k�k��,3.3,��
2018/03/23,11:50,0.829,1.383,0.866,1.622,1.081,0.474,0.835,0.808,�k��,1.7,��
2018/03/23,12:00,0.827,1.386,0.863,1.622,1.081,0.473,0.834,0.807,���k��,2.2,��
2018/03/23,12:10,0.829,1.387,0.864,1.621,1.080,0.474,0.836,0.806,�k��,2.2,��
2018/03/23,12:20,0.829,1.386,0.866,1.619,1.080,0.475,0.834,0.807,���k��,3.2,��
2018/03/23,12:30,0.829,1.385,0.866,1.619,1.082,0.473,0.832,0.807,���k��,3.2,��
2018/03/23,12:40,0.829,1.386,0.867,1.623,1.080,0.474,0.834,0.806,��,2.3,��
2018/03/23,12:50,0.830,1.388,0.867,1.622,1.081,0.474,0.835,0.804,���쓌,2.6,��
2018/03/23,13:00,0.831,1.385,0.864,1.624,1.082,0.474,0.835,0.805,��,3.5,��
2018/03/23,13:10,0.831,1.384,0.864,1.622,1.083,0.475,0.835,0.806,��,2.8,��
2018/03/23,13:20,0.828,1.385,0.865,1.622,1.082,0.473,0.834,0.808,���쓌,2.3,��
2018/03/23,13:30,0.829,1.383,0.864,1.621,1.085,0.474,0.836,0.806,���k��,2.5,��
2018/03/23,13:40,0.831,1.385,0.863,1.624,1.083,0.473,0.837,0.806,���k��,2.9,��
2018/03/23,13:50,0.833,1.387,0.868,1.625,1.082,0.474,0.834,0.805,���k��,2.6,��
2018/03/23,14:00,0.830,1.384,0.864,1.624,1.084,0.473,0.835,0.807,���k��,3.2,��
2018/03/23,14:10,0.831,1.386,0.868,1.625,1.084,0.475,0.837,0.806,���k��,2.3,��
2018/03/23,14:20,0.830,1.385,0.868,1.623,1.083,0.476,0.834,0.805,�k��,3.1,��
2018/03/23,14:30,0.832,1.387,0.867,1.624,1.081,0.474,0.838,0.806,���k��,2.0,��
2018/03/23,14:40,0.834,1.388,0.870,1.623,1.082,0.476,0.836,0.804,�k��,1.9,��
2018/03/23,14:50,0.829,1.389,0.867,1.629,1.084,0.476,0.835,0.801,�k��,1.7,��
2018/03/23,15:00,0.833,1.391,0.869,1.623,1.081,0.476,0.836,0.805,�k��,2.0,��
2018/03/23,15:10,0.831,1.391,0.867,1.625,1.083,0.474,0.835,0.804,�k��,2.9,��
2018/03/23,15:20,0.832,1.390,0.870,1.628,1.086,0.477,0.834,0.804,���k��,2.8,��
2018/03/23,15:30,0.832,1.393,0.867,1.626,1.083,0.474,0.836,0.806,���k��,1.4,��
2018/03/23,15:40,0.833,1.393,0.870,1.627,1.085,0.476,0.835,0.807,��쓌,2.3,��
2018/03/23,15:50,0.831,1.392,0.868,1.626,1.083,0.476,0.836,0.807,���쓌,2.3,��
2018/03/23,16:00,0.831,1.392,0.869,1.626,1.085,0.476,0.835,0.808,��,2.6,��
2018/03/23,16:10,0.834,1.395,0.871,1.626,1.085,0.475,0.835,0.809,���쓌,3.2,��
2018/03/23,16:20,0.833,1.393,0.869,1.626,1.088,0.476,0.836,0.806,���쓌,2.6,��
2018/03/23,16:30,0.832,1.397,0.869,1.627,1.086,0.477,0.836,0.808,���쓌,3.0,��
2018/03/23,16:40,0.832,1.394,0.868,1.626,1.087,0.476,0.835,0.808,�쓌,3.3,��
2018/03/23,16:50,0.831,1.391,0.869,1.627,1.086,0.476,0.835,0.809,���쓌,3.1,��
2018/03/23,17:00,0.834,1.396,0.871,1.626,1.086,0.477,0.837,0.807,��,2.5,��
2018/03/23,17:10,0.833,1.395,0.872,1.627,1.083,0.477,0.837,0.808,��,1.7,��
2018/03/23,17:20,0.830,1.395,0.870,1.623,1.086,0.476,0.836,0.808,��,2.0,��
2018/03/23,17:30,0.833,1.396,0.871,1.626,1.089,0.475,0.837,0.807,��,0.9,��
2018/03/23,17:40,0.834,1.391,0.869,1.626,1.087,0.476,0.836,0.807,���k��,0.9,��
2018/03/23,17:50,0.832,1.393,0.869,1.623,1.089,0.475,0.837,0.807,�k��,0.9,��
2018/03/23,18:00,0.832,1.396,0.869,1.626,1.090,0.476,0.837,0.807,-,CALM,��
2018/03/23,18:10,0.833,1.395,0.868,1.622,1.089,0.476,0.837,0.805,�쐼,0.9,��
2018/03/23,18:20,0.831,1.396,0.869,1.624,1.087,0.475,0.839,0.807,��쐼,1.5,��
2018/03/23,18:30,0.830,1.392,0.868,1.623,1.088,0.476,0.837,0.807,��,1.1,��
2018/03/23,18:40,0.832,1.392,0.867,1.624,1.089,0.475,0.837,0.808,�쐼,0.8,��
2018/03/23,18:50,0.829,1.396,0.867,1.622,1.088,0.475,0.838,0.806,���쐼,1.7,��
2018/03/23,19:00,0.832,1.392,0.870,1.625,1.089,0.474,0.836,0.807,��,3.4,��
2018/03/23,19:10,0.831,1.394,0.868,1.626,1.089,0.476,0.837,0.808,���k��,4.5,��
2018/03/23,19:20,0.831,1.392,0.869,1.627,1.088,0.476,0.837,0.807,���k��,4.4,��
2018/03/23,19:30,0.831,1.394,0.869,1.624,1.089,0.475,0.837,0.806,��,3.8,��
2018/03/23,19:40,0.831,1.393,0.870,1.626,1.086,0.476,0.836,0.808,��,4.5,��
2018/03/23,19:50,0.831,1.395,0.867,1.627,1.087,0.475,0.837,0.806,��,5.9,��
2018/03/23,20:00,0.830,1.395,0.869,1.625,1.086,0.475,0.837,0.807,��,4.8,��
2018/03/23,20:10,0.832,1.391,0.868,1.625,1.089,0.474,0.837,0.807,���k��,2.8,��
2018/03/23,20:20,0.831,1.390,0.870,1.623,1.089,0.475,0.836,0.807,�k��,3.7,��
2018/03/23,20:30,0.829,1.394,0.869,1.625,1.090,0.473,0.837,0.805,�k��,3.5,��
2018/03/23,20:40,0.830,1.394,0.866,1.624,1.088,0.474,0.837,0.808,���k��,2.9,��
2018/03/23,20:50,0.829,1.393,0.868,1.627,1.088,0.475,0.836,0.805,���k��,5.1,��
2018/03/23,21:00,0.828,1.393,0.869,1.627,1.087,0.474,0.836,0.806,���k��,4.9,��
2018/03/23,21:10,0.831,1.393,0.868,1.625,1.088,0.473,0.835,0.808,���k��,3.4,��
2018/03/23,21:20,0.829,1.392,0.869,1.623,1.088,0.474,0.838,0.808,�k��,3.5,��
2018/03/23,21:30,0.830,1.396,0.870,1.625,1.088,0.475,0.836,0.806,�k��,3.6,��
2018/03/23,21:40,0.829,1.393,0.868,1.624,1.088,0.474,0.835,0.806,�k��,3.1,��
2018/03/23,21:50,0.827,1.392,0.868,1.627,1.088,0.474,0.837,0.805,�k��,2.9,��
2018/03/23,22:00,0.831,1.392,0.867,1.624,1.089,0.475,0.836,0.805,�k��,3.1,��
2018/03/23,22:10,0.828,1.392,0.869,1.625,1.087,0.476,0.835,0.806,�k�k��,3.7,��
2018/03/23,22:20,0.830,1.391,0.870,1.627,1.090,0.474,0.837,0.806,�k�k��,4.5,��
2018/03/23,22:30,0.828,1.391,0.867,1.624,1.088,0.473,0.834,0.807,�k�k��,4.9,��
2018/03/23,22:40,0.830,1.392,0.869,1.626,1.088,0.474,0.836,0.805,�k��,4.4,��
2018/03/23,22:50,0.830,1.391,0.868,1.623,1.089,0.473,0.837,0.808,�k�k��,5.1,��
2018/03/23,23:00,0.827,1.391,0.867,1.624,1.087,0.472,0.836,0.807,�k�k��,6.5,��
2018/03/23,23:10,0.831,1.391,0.869,1.625,1.087,0.474,0.836,0.807,�k��,4.8,��
2018/03/23,23:20,0.830,1.391,0.866,1.624,1.088,0.474,0.838,0.805,�k��,4.3,��
2018/03/23,23:30,0.828,1.392,0.868,1.625,1.091,0.474,0.836,0.806,�k��,4.1,��
2018/03/23,23:40,0.826,1.393,0.868,1.623,1.089,0.474,0.836,0.806,�k��,4.6,��
2018/03/23,23:50,0.831,1.393,0.866,1.628,1.087,0.473,0.839,0.807,�k��,5.0,��
